When you browse on this site, cookies collect data to enhance your experience and personalize the content and advertising you see.
Visit our Privacy Policy to learn more. By continuing to use the site, you agree to this use of cookies and data.
  • în România
  • Lista ţărilor
  • Pe 7 zile
  • Temperatura apei
  • Meteo pe hartă
  • Widget-uri
  • user-avatar
    Intrare

    Meteo pe oră la Lenkoran

    Astăzi, 5 Iunie, Vineri

    Timp Temperatura Precipitaţii Vânt Presiune Umiditate
    00:00 +14°C° 0 mm 1 m/s 633 mmHg 57%
    01:00 +14°C° 0 mm 1 m/s 632 mmHg 56%
    02:00 +14°C° 0 mm 1 m/s 632 mmHg 55%
    03:00 +13°C° 0 mm 1 m/s 632 mmHg 54%
    04:00 +14°C° 0 mm 1 m/s 633 mmHg 53%
    05:00 +16°C° 0 mm 1 m/s 634 mmHg 51%
    06:00 +18°C° 0 mm 1 m/s 635 mmHg 49%
    07:00 +19°C° 0 mm 1 m/s 636 mmHg 46%
    08:00 +21°C° 0 mm 1 m/s 636 mmHg 43%
    09:00 +21°C° 0 mm 2 m/s 637 mmHg 40%
    10:00 +23°C° 0 mm 2 m/s 637 mmHg 41%
    11:00 +22°C° 0 mm 3 m/s 637 mmHg 43%
    12:00 +24°C° 0 mm 3 m/s 637 mmHg 45%
    13:00 +22°C° 0 mm 3 m/s 636 mmHg 49%
    14:00 +21°C° 0 mm 4 m/s 636 mmHg 53%
    15:00 +21°C° 0 mm 4 m/s 635 mmHg 57%
    16:00 +19°C° 0 mm 3 m/s 635 mmHg 63%
    17:00 +18°C° 0 mm 3 m/s 635 mmHg 68%
    18:00 +16°C° 0 mm 3 m/s 634 mmHg 74%
    19:00 +14°C° 0 mm 2 m/s 634 mmHg 78%
    20:00 +13°C° 0 mm 2 m/s 634 mmHg 83%
    21:00 +12°C° 0 mm 1 m/s 634 mmHg 87%
    22:00 +11°C° 0 mm 1 m/s 634 mmHg 86%
    23:00 +11°C° 0 mm 1 m/s 634 mmHg 86%

    Mâine, 6 Iunie, Sâmbătă

    Timp Temperatura Precipitaţii Vânt Presiune Umiditate
    00:00 +10°C° 0 mm 2 m/s 635 mmHg 85%
    01:00 +9°C° 0 mm 2 m/s 635 mmHg 83%
    02:00 +9°C° 0 mm 2 m/s 635 mmHg 81%
    03:00 +9°C° 0 mm 2 m/s 635 mmHg 79%
    04:00 +10°C° 0 mm 2 m/s 635 mmHg 77%
    05:00 +12°C° 0 mm 2 m/s 636 mmHg 74%
    06:00 +12°C° 0 mm 2 m/s 637 mmHg 71%
    07:00 +13°C° 0 mm 3 m/s 637 mmHg 65%
    08:00 +14°C° 0 mm 3 m/s 638 mmHg 59%
    09:00 +17°C° 0 mm 4 m/s 638 mmHg 53%
    10:00 +17°C° 0 mm 4 m/s 638 mmHg 53%
    11:00 +17°C° 0 mm 5 m/s 638 mmHg 52%
    12:00 +17°C° 0 mm 5 m/s 638 mmHg 52%
    13:00 +17°C° 0 mm 5 m/s 637 mmHg 52%
    14:00 +17°C° 0 mm 5 m/s 637 mmHg 53%
    15:00 +17°C° 0 mm 5 m/s 637 mmHg 54%
    16:00 +17°C° 0 mm 4 m/s 636 mmHg 58%
    17:00 +14°C° 0 mm 3 m/s 636 mmHg 61%
    18:00 +13°C° 0 mm 3 m/s 636 mmHg 65%
    19:00 +13°C° 0 mm 2 m/s 636 mmHg 68%
    20:00 +12°C° 0 mm 2 m/s 636 mmHg 71%
    21:00 +11°C° 0 mm 1 m/s 636 mmHg 74%
    22:00 +11°C° 0 mm 1 m/s 636 mmHg 74%
    23:00 +10°C° 0 mm 1 m/s 635 mmHg 75%

    Poimâine, 7 Iunie, Duminică

    Timp Temperatura Precipitaţii Vânt Presiune Umiditate
    00:00 +10°C° 0 mm 1 m/s 635 mmHg 75%
    01:00 +10°C° 0 mm 1 m/s 635 mmHg 76%
    02:00 +9°C° 0 mm 1 m/s 635 mmHg 76%
    03:00 +9°C° 0 mm 1 m/s 635 mmHg 77%
    04:00 +10°C° 0 mm 1 m/s 635 mmHg 73%
    05:00 +11°C° 0 mm 1 m/s 636 mmHg 70%
    06:00 +13°C° 0 mm 1 m/s 637 mmHg 66%
    07:00 +14°C° 0 mm 2 m/s 637 mmHg 60%
    08:00 +15°C° 0 mm 2 m/s 637 mmHg 55%
    09:00 +17°C° 0 mm 3 m/s 638 mmHg 49%
    10:00 +18°C° 0 mm 3 m/s 638 mmHg 47%
    11:00 +18°C° 0 mm 4 m/s 638 mmHg 45%
    12:00 +19°C° 0 mm 4 m/s 638 mmHg 42%
    13:00 +19°C° 0 mm 4 m/s 638 mmHg 41%
    14:00 +19°C° 0 mm 4 m/s 638 mmHg 39%
    15:00 +19°C° 0 mm 4 m/s 637 mmHg 37%
    16:00 +18°C° 0 mm 3 m/s 637 mmHg 39%
    17:00 +17°C° 0 mm 3 m/s 637 mmHg 40%
    18:00 +16°C° 0 mm 2 m/s 636 mmHg 41%
    19:00 +14°C° 0 mm 2 m/s 636 mmHg 42%
    20:00 +13°C° 0 mm 2 m/s 636 mmHg 42%
    21:00 +11°C° 0 mm 1 m/s 635 mmHg 43%
    22:00 +11°C° 0 mm 1 m/s 635 mmHg 45%
    23:00 +11°C° 0 mm 1 m/s 634 mmHg 47%

    8 Iunie, Luni

    Timp Temperatura Precipitaţii Vânt Presiune Umiditate
    00:00 +11°C° 0 mm 1 m/s 634 mmHg 49%
    01:00 +11°C° 0 mm 1 m/s 634 mmHg 49%
    02:00 +10°C° 0 mm 1 m/s 634 mmHg 49%
    03:00 +10°C° 0 mm 1 m/s 634 mmHg 49%
    04:00 +12°C° 0 mm 1 m/s 634 mmHg 48%
    05:00 +13°C° 0 mm 1 m/s 635 mmHg 47%
    06:00 +15°C° 0 mm 1 m/s 636 mmHg 46%
    07:00 +16°C° 0 mm 1 m/s 636 mmHg 44%
    08:00 +18°C° 0 mm 2 m/s 636 mmHg 42%
    09:00 +19°C° 0 mm 2 m/s 637 mmHg 40%
    10:00 +20°C° 0 mm 3 m/s 637 mmHg 38%
    11:00 +21°C° 0 mm 3 m/s 637 mmHg 36%
    12:00 +21°C° 0 mm 4 m/s 637 mmHg 34%
    13:00 +21°C° 0 mm 4 m/s 636 mmHg 34%
    14:00 +21°C° 0 mm 4 m/s 636 mmHg 34%
    15:00 +21°C° 0 mm 4 m/s 636 mmHg 34%
    16:00 +20°C° 0 mm 3 m/s 635 mmHg 39%
    17:00 +19°C° 0 mm 3 m/s 635 mmHg 45%
    18:00 +17°C° 0 mm 2 m/s 634 mmHg 50%
    19:00 +16°C° 0 mm 2 m/s 634 mmHg 48%
    20:00 +14°C° 0 mm 1 m/s 634 mmHg 46%
    21:00 +12°C° 0 mm 1 m/s 633 mmHg 45%
    22:00 +12°C° 0 mm 1 m/s 633 mmHg 44%
    23:00 +12°C° 0 mm 1 m/s 633 mmHg 42%

    9 Iunie, Marţi

    Timp Temperatura Precipitaţii Vânt Presiune Umiditate
    00:00 +12°C° 0 mm 1 m/s 633 mmHg 41%
    01:00 +12°C° 0 mm 1 m/s 633 mmHg 41%
    02:00 +12°C° 0 mm 1 m/s 633 mmHg 41%
    03:00 +12°C° 0 mm 1 m/s 632 mmHg 42%
    04:00 +13°C° 0 mm 1 m/s 633 mmHg 42%
    05:00 +15°C° 0 mm 1 m/s 634 mmHg 42%
    06:00 +15°C° 0 mm 0 m/s 635 mmHg 43%
    07:00 +19°C° 0 mm 1 m/s 635 mmHg 42%
    08:00 +19°C° 0 mm 2 m/s 636 mmHg 40%
    09:00 +20°C° 0 mm 3 m/s 636 mmHg 39%
    10:00 +21°C° 0 mm 3 m/s 636 mmHg 39%
    11:00 +21°C° 0 mm 3 m/s 636 mmHg 38%
    12:00 +22°C° 0 mm 4 m/s 636 mmHg 38%
    13:00 +22°C° 0 mm 4 m/s 636 mmHg 38%
    14:00 +22°C° 0 mm 4 m/s 636 mmHg 39%
    15:00 +21°C° 0 mm 4 m/s 635 mmHg 40%
    16:00 +20°C° 0 mm 3 m/s 635 mmHg 45%
    17:00 +19°C° 0 mm 3 m/s 635 mmHg 49%
    18:00 +18°C° 0 mm 2 m/s 634 mmHg 54%
    19:00 +16°C° 0 mm 2 m/s 634 mmHg 55%
    20:00 +15°C° 0 mm 1 m/s 634 mmHg 57%
    21:00 +14°C° 0 mm 1 m/s 634 mmHg 58%
    22:00 +14°C° 0 mm 1 m/s 633 mmHg 59%
    23:00 +13°C° 0 mm 1 m/s 633 mmHg 59%

    10 Iunie, Miercuri

    Timp Temperatura Precipitaţii Vânt Presiune Umiditate
    00:00 +13°C° 0 mm 1 m/s 633 mmHg 59%
    01:00 +13°C° 0 mm 1 m/s 633 mmHg 59%
    02:00 +13°C° 0 mm 1 m/s 633 mmHg 59%
    03:00 +12°C° 0 mm 1 m/s 633 mmHg 59%
    04:00 +13°C° 0 mm 0 m/s 633 mmHg 56%
    05:00 +14°C° 0 mm 0 m/s 634 mmHg 54%
    06:00 +15°C° 0 mm 0 m/s 635 mmHg 52%
    07:00 +19°C° 0 mm 1 m/s 635 mmHg 49%
    08:00 +19°C° 0 mm 2 m/s 636 mmHg 47%
    09:00 +20°C° 0 mm 3 m/s 636 mmHg 45%
    10:00 +21°C° 0 mm 3 m/s 636 mmHg 44%
    11:00 +22°C° 0 mm 4 m/s 636 mmHg 43%
    12:00 +23°C° 0 mm 4 m/s 637 mmHg 42%
    13:00 +22°C° 0.1 mm 4 m/s 636 mmHg 43%
    14:00 +22°C° 0.1 mm 4 m/s 636 mmHg 44%
    15:00 +22°C° 0.1 mm 4 m/s 636 mmHg 45%
    16:00 +21°C° 0.3 mm 3 m/s 635 mmHg 51%
    17:00 +19°C° 0.3 mm 2 m/s 635 mmHg 56%
    18:00 +19°C° 0.3 mm 1 m/s 635 mmHg 62%
    19:00 +18°C° 0 mm 1 m/s 635 mmHg 64%
    20:00 +16°C° 0 mm 1 m/s 634 mmHg 65%
    21:00 +15°C° 0 mm 1 m/s 634 mmHg 66%
    22:00 +15°C° 0 mm 1 m/s 634 mmHg 66%
    23:00 +14°C° 0 mm 0 m/s 634 mmHg 66%
    Arată mai mult